Location: Rounton
(54.4000°N, 1.3500°W)
Time: 06:35:30
(UTC+01:00)

Tiros 1 despin weight - Pass Details

Date: 11 March 2024
Orbit: 579 x 623 km, 48.2° (Epoch: 16 April)

Event Time Altitude Azimuth Distance (km) Brightness Sun altitude
Exits shadow 05:03:11 - 208° (SSW) 2,052 ? -13.3°
Reaches altitude 10° 05:03:33 10° 205° (SSW) 1,941 ? -13.2°
Maximum altitude 05:06:57 22° 155° (SSE) 1,324 ? -12.8°
Drops below altitude 10° 05:10:21 10° 105° (ESE) 1,924 ? -12.3°
Sets 05:13:00 0° 90° (E) 2,819 ? -11.9°
